owner,sensor,date,latitude,longitude,vertical_datum,wind_speed,wind_to_direction,wind_speed_of_gust,qcFlag 
LUMCON,ioos:station:LUMCON:wisl1:1,2019-12-01T00:00:00Z,29.1144,-90.1840,1.0,4.4,155.0,22.0,'11111222,11111222,11111222' 
LUMCON,ioos:station:LUMCON:wisl1:1,2019-12-01T00:15:00Z,29.1144,-90.1840,1.0,4.6,155.0,22.0,'11111222,11111222,11111222' 
LUMCON,ioos:station:LUMCON:wisl1:1,2019-12-01T00:30:00Z,29.1144,-90.1840,1.0,6.0,157.0,22.0,'11111222,11111222,11111222' 
LUMCON,ioos:station:LUMCON:wisl1:1,2019-12-01T00:45:00Z,29.1144,-90.1840,1.0,6.6,154.0,22.0,'11111222,11111222,11111222' 
LUMCON,ioos:station:LUMCON:wisl1:1,2019-12-01T01:00:00Z,29.1144,-90.1840,1.0,6.2,149.0,22.1,'11111222,11111222,11111222' 
LUMCON,ioos:station:LUMCON:wisl1:1,2019-12-01T01:15:00Z,29.1144,-90.1840,1.0,4.4,170.0,22.1,'11111222,11111222,11111222' 
LUMCON,ioos:station:LUMCON:wisl1:1,2019-12-01T01:30:00Z,29.1144,-90.1840,1.0,5.6,166.0,22.0,'11111222,11111222,11111222' 
LUMCON,ioos:station:LUMCON:wisl1:1,2019-12-01T01:45:00Z,29.1144,-90.1840,1.0,4.8,166.0,22.0,'11111222,11111222,11111222' 
LUMCON,ioos:station:LUMCON:wisl1:1,2019-12-01T02:00:00Z,29.1144,-90.1840,1.0,5.0,163.0,22.1,'11111222,11111222,11111222' 
LUMCON,ioos:station:LUMCON:wisl1:1,2019-12-01T02:15:00Z,29.1144,-90.1840,1.0,4.9,160.0,22.0,'11111222,11111222,11111222' 
LUMCON,ioos:station:LUMCON:wisl1:1,2019-12-01T02:30:00Z,29.1144,-90.1840,1.0,4.7,170.0,22.0,'11111222,11111222,11111222' 
LUMCON,ioos:station:LUMCON:wisl1:1,2019-12-01T02:45:00Z,29.1144,-90.1840,1.0,5.3,165.0,22.0,'11111222,11111222,11111222' 
LUMCON,ioos:station:LUMCON:wisl1:1,2019-12-01T03:00:00Z,29.1144,-90.1840,1.0,5.0,171.0,22.0,'11111222,11111222,11111222' 
LUMCON,ioos:station:LUMCON:wisl1:1,2019-12-01T03:15:00Z,29.1144,-90.1840,1.0,4.9,166.0,21.9,'11111222,11111222,11111222' 
LUMCON,ioos:station:LUMCON:wisl1:1,2019-12-01T03:30:00Z,29.1144,-90.1840,1.0,4.8,162.0,21.9,'11111222,11111222,11111222' 
LUMCON,ioos:station:LUMCON:wisl1:1,2019-12-01T03:45:00Z,29.1144,-90.1840,1.0,5.2,163.0,22.0,'11111222,11111222,11111222' 
LUMCON,ioos:station:LUMCON:wisl1:1,2019-12-01T04:00:00Z,29.1144,-90.1840,1.0,4.1,163.0,22.1,'11111222,11111222,11111222' 
LUMCON,ioos:station:LUMCON:wisl1:1,2019-12-01T04:15:00Z,29.1144,-90.1840,1.0,5.1,165.0,22.1,'11111222,11111222,11111222' 
LUMCON,ioos:station:LUMCON:wisl1:1,2019-12-01T04:30:00Z,29.1144,-90.1840,1.0,4.5,169.0,22.0,'11111222,11111222,11111222' 
LUMCON,ioos:station:LUMCON:wisl1:1,2019-12-01T04:45:00Z,29.1144,-90.1840,1.0,6.1,163.0,22.1,'11111222,11111222,11111222' 
LUMCON,ioos:station:LUMCON:wisl1:1,2019-12-01T05:00:00Z,29.1144,-90.1840,1.0,4.1,166.0,22.1,'11111222,11111222,11111222' 
LUMCON,ioos:station:LUMCON:wisl1:1,2019-12-01T05:15:00Z,29.1144,-90.1840,1.0,4.4,181.0,22.1,'11111222,11111222,11111222' 
LUMCON,ioos:station:LUMCON:wisl1:1,2019-12-01T05:30:00Z,29.1144,-90.1840,1.0,4.9,167.0,22.1,'11111222,11111222,11111222' 
LUMCON,ioos:station:LUMCON:wisl1:1,2019-12-01T05:45:00Z,29.1144,-90.1840,1.0,6.3,157.0,22.1,'11111222,11111222,11111222' 
LUMCON,ioos:station:LUMCON:wisl1:1,2019-12-01T06:00:00Z,29.1144,-90.1840,1.0,4.5,172.0,22.0,'11111222,11111222,11111222' 
LUMCON,ioos:station:LUMCON:wisl1:1,2019-12-01T06:15:00Z,29.1144,-90.1840,1.0,5.3,158.0,22.0,'11111222,11111222,11111222' 
LUMCON,ioos:station:LUMCON:wisl1:1,2019-12-01T06:30:00Z,29.1144,-90.1840,1.0,6.0,172.0,22.2,'11111222,11111222,11111222' 
LUMCON,ioos:station:LUMCON:wisl1:1,2019-12-01T06:45:00Z,29.1144,-90.1840,1.0,4.7,170.0,22.1,'11111222,11111222,11111222' 
LUMCON,ioos:station:LUMCON:wisl1:1,2019-12-01T07:00:00Z,29.1144,-90.1840,1.0,5.5,189.0,22.3,'11111222,11111222,11111222' 
LUMCON,ioos:station:LUMCON:wisl1:1,2019-12-01T07:15:00Z,29.1144,-90.1840,1.0,5.4,173.0,22.3,'11111222,11111222,11111222' 
LUMCON,ioos:station:LUMCON:wisl1:1,2019-12-01T07:30:00Z,29.1144,-90.1840,1.0,5.1,182.0,22.2,'11111222,11111222,11111222' 
LUMCON,ioos:station:LUMCON:wisl1:1,2019-12-01T07:45:00Z,29.1144,-90.1840,1.0,5.2,171.0,22.2,'11111222,11111222,11111222' 
LUMCON,ioos:station:LUMCON:wisl1:1,2019-12-01T08:00:00Z,29.1144,-90.1840,1.0,5.4,188.0,22.2,'11111222,11111222,11111222' 
LUMCON,ioos:station:LUMCON:wisl1:1,2019-12-01T08:15:00Z,29.1144,-90.1840,1.0,5.2,189.0,22.2,'11111222,11111222,11111222' 
LUMCON,ioos:station:LUMCON:wisl1:1,2019-12-01T08:30:00Z,29.1144,-90.1840,1.0,3.9,172.0,22.2,'11111222,11111222,11111222' 
LUMCON,ioos:station:LUMCON:wisl1:1,2019-12-01T08:45:00Z,29.1144,-90.1840,1.0,4.9,201.0,22.5,'11111222,11111222,11111222' 
LUMCON,ioos:station:LUMCON:wisl1:1,2019-12-01T09:00:00Z,29.1144,-90.1840,1.0,5.4,182.0,22.2,'11111222,11111222,11111222' 
LUMCON,ioos:station:LUMCON:wisl1:1,2019-12-01T09:15:00Z,29.1144,-90.1840,1.0,5.0,186.0,22.0,'11111222,11111222,11111222' 
LUMCON,ioos:station:LUMCON:wisl1:1,2019-12-01T09:30:00Z,29.1144,-90.1840,1.0,4.1,177.0,22.1,'11111222,11111222,11111222' 
LUMCON,ioos:station:LUMCON:wisl1:1,2019-12-01T09:45:00Z,29.1144,-90.1840,1.0,4.8,187.0,22.2,'11111222,11111222,11111222' 
LUMCON,ioos:station:LUMCON:wisl1:1,2019-12-01T10:00:00Z,29.1144,-90.1840,1.0,5.4,197.0,22.4,'11111222,11111222,11111222' 
LUMCON,ioos:station:LUMCON:wisl1:1,2019-12-01T10:15:00Z,29.1144,-90.1840,1.0,3.9,201.0,22.2,'11111222,11111222,11111222' 
LUMCON,ioos:station:LUMCON:wisl1:1,2019-12-01T10:30:00Z,29.1144,-90.1840,1.0,6.4,199.0,22.6,'11111222,11111222,11111222' 
LUMCON,ioos:station:LUMCON:wisl1:1,2019-12-01T10:45:00Z,29.1144,-90.1840,1.0,5.7,199.0,22.4,'11111222,11111222,11111222' 
LUMCON,ioos:station:LUMCON:wisl1:1,2019-12-01T11:00:00Z,29.1144,-90.1840,1.0,6.1,209.0,22.6,'11111222,11111222,11111222' 
LUMCON,ioos:station:LUMCON:wisl1:1,2019-12-01T11:15:00Z,29.1144,-90.1840,1.0,5.7,207.0,22.4,'11111222,11111222,11111222' 
LUMCON,ioos:station:LUMCON:wisl1:1,2019-12-01T11:30:00Z,29.1144,-90.1840,1.0,5.1,214.0,22.4,'11111222,11111222,11111222' 
LUMCON,ioos:station:LUMCON:wisl1:1,2019-12-01T11:45:00Z,29.1144,-90.1840,1.0,10.1,315.0,19.7,'11111222,11111222,11111222' 
LUMCON,ioos:station:LUMCON:wisl1:1,2019-12-01T12:00:00Z,29.1144,-90.1840,1.0,7.0,326.0,19.2,'11111222,11111222,11111222' 
LUMCON,ioos:station:LUMCON:wisl1:1,2019-12-01T12:15:00Z,29.1144,-90.1840,1.0,5.6,315.0,19.3,'11111222,11111222,11111222' 
LUMCON,ioos:station:LUMCON:wisl1:1,2019-12-01T12:30:00Z,29.1144,-90.1840,1.0,7.1,313.0,19.4,'11111222,11111222,11111222' 
LUMCON,ioos:station:LUMCON:wisl1:1,2019-12-01T12:45:00Z,29.1144,-90.1840,1.0,5.1,322.0,19.4,'11111222,11111222,11111222' 
LUMCON,ioos:station:LUMCON:wisl1:1,2019-12-01T13:00:00Z,29.1144,-90.1840,1.0,6.8,326.0,19.3,'11111222,11111222,11111222' 
LUMCON,ioos:station:LUMCON:wisl1:1,2019-12-01T13:15:00Z,29.1144,-90.1840,1.0,4.8,312.0,19.4,'11111222,11111222,11111222' 
LUMCON,ioos:station:LUMCON:wisl1:1,2019-12-01T13:30:00Z,29.1144,-90.1840,1.0,4.8,315.0,19.4,'11111222,11111222,11111222' 
LUMCON,ioos:station:LUMCON:wisl1:1,2019-12-01T13:45:00Z,29.1144,-90.1840,1.0,4.4,298.0,19.6,'11111222,11111222,11111222' 
LUMCON,ioos:station:LUMCON:wisl1:1,2019-12-01T14:00:00Z,29.1144,-90.1840,1.0,3.1,317.0,19.5,'11111222,11111222,11111222' 
LUMCON,ioos:station:LUMCON:wisl1:1,2019-12-01T14:15:00Z,29.1144,-90.1840,1.0,5.1,297.0,19.5,'11111222,11111222,11111222' 
LUMCON,ioos:station:LUMCON:wisl1:1,2019-12-01T14:30:00Z,29.1144,-90.1840,1.0,3.3,303.0,19.4,'11111222,11111222,11111222' 
LUMCON,ioos:station:LUMCON:wisl1:1,2019-12-01T14:45:00Z,29.1144,-90.1840,1.0,3.1,294.0,19.6,'11111222,11111222,11111222' 
LUMCON,ioos:station:LUMCON:wisl1:1,2019-12-01T15:00:00Z,29.1144,-90.1840,1.0,2.5,298.0,19.8,'11111222,11111222,11111222' 
LUMCON,ioos:station:LUMCON:wisl1:1,2019-12-01T15:15:00Z,29.1144,-90.1840,1.0,3.5,284.0,19.9,'11111222,11111222,11111222' 
LUMCON,ioos:station:LUMCON:wisl1:1,2019-12-01T15:30:00Z,29.1144,-90.1840,1.0,5.1,291.0,20.2,'11111222,11111222,11111222' 
LUMCON,ioos:station:LUMCON:wisl1:1,2019-12-01T15:45:00Z,29.1144,-90.1840,1.0,3.8,290.0,20.3,'11111222,11111222,11111222' 
LUMCON,ioos:station:LUMCON:wisl1:1,2019-12-01T16:00:00Z,29.1144,-90.1840,1.0,6.7,286.0,20.2,'11111222,11111222,11111222' 
LUMCON,ioos:station:LUMCON:wisl1:1,2019-12-01T16:15:00Z,29.1144,-90.1840,1.0,7.3,288.0,20.3,'11111222,11111222,11111222' 
LUMCON,ioos:station:LUMCON:wisl1:1,2019-12-01T16:30:00Z,29.1144,-90.1840,1.0,5.8,294.0,20.1,'11111222,11111222,11111222' 
LUMCON,ioos:station:LUMCON:wisl1:1,2019-12-01T16:45:00Z,29.1144,-90.1840,1.0,4.3,280.0,20.1,'11111222,11111222,11111222' 
LUMCON,ioos:station:LUMCON:wisl1:1,2019-12-01T17:00:00Z,29.1144,-90.1840,1.0,6.3,275.0,20.1,'11111222,11111222,11111222' 
LUMCON,ioos:station:LUMCON:wisl1:1,2019-12-01T17:15:00Z,29.1144,-90.1840,1.0,6.6,282.0,20.0,'11111222,11111222,11111222' 
LUMCON,ioos:station:LUMCON:wisl1:1,2019-12-01T17:30:00Z,29.1144,-90.1840,1.0,5.7,287.0,20.0,'11111222,11111222,11111222' 
LUMCON,ioos:station:LUMCON:wisl1:1,2019-12-01T17:45:00Z,29.1144,-90.1840,1.0,4.6,278.0,20.3,'11111222,11111222,11111222' 
LUMCON,ioos:station:LUMCON:wisl1:1,2019-12-01T18:00:00Z,29.1144,-90.1840,1.0,5.2,253.0,20.4,'11111222,11111222,11111222' 
LUMCON,ioos:station:LUMCON:wisl1:1,2019-12-01T18:15:00Z,29.1144,-90.1840,1.0,6.6,240.0,20.6,'11111222,11111222,11111222' 
LUMCON,ioos:station:LUMCON:wisl1:1,2019-12-01T18:30:00Z,29.1144,-90.1840,1.0,7.4,247.0,20.7,'11111222,11111222,11111222' 
LUMCON,ioos:station:LUMCON:wisl1:1,2019-12-01T18:45:00Z,29.1144,-90.1840,1.0,6.0,249.0,20.9,'11111222,11111222,11111222' 
LUMCON,ioos:station:LUMCON:wisl1:1,2019-12-01T19:00:00Z,29.1144,-90.1840,1.0,6.4,258.0,21.2,'11111222,11111222,11111222' 
LUMCON,ioos:station:LUMCON:wisl1:1,2019-12-01T19:15:00Z,29.1144,-90.1840,1.0,4.7,250.0,21.2,'11111222,11111222,11111222' 
LUMCON,ioos:station:LUMCON:wisl1:1,2019-12-01T19:30:00Z,29.1144,-90.1840,1.0,4.6,240.0,21.3,'11111222,11111222,11111222' 
LUMCON,ioos:station:LUMCON:wisl1:1,2019-12-01T19:45:00Z,29.1144,-90.1840,1.0,6.0,233.0,21.4,'11111222,11111222,11111222' 
LUMCON,ioos:station:LUMCON:wisl1:1,2019-12-01T20:00:00Z,29.1144,-90.1840,1.0,5.9,240.0,21.2,'11111222,11111222,11111222' 
LUMCON,ioos:station:LUMCON:wisl1:1,2019-12-01T20:15:00Z,29.1144,-90.1840,1.0,4.9,259.0,21.2,'11111222,11111222,11111222' 
LUMCON,ioos:station:LUMCON:wisl1:1,2019-12-01T20:30:00Z,29.1144,-90.1840,1.0,8.1,246.0,21.3,'11111222,11111222,11111222' 
LUMCON,ioos:station:LUMCON:wisl1:1,2019-12-01T20:45:00Z,29.1144,-90.1840,1.0,5.5,238.0,21.1,'11111222,11111222,11111222' 
LUMCON,ioos:station:LUMCON:wisl1:1,2019-12-01T21:00:00Z,29.1144,-90.1840,1.0,7.3,256.0,21.1,'11111222,11111222,11111222' 
LUMCON,ioos:station:LUMCON:wisl1:1,2019-12-01T21:15:00Z,29.1144,-90.1840,1.0,5.9,249.0,21.0,'11111222,11111222,11111222' 
LUMCON,ioos:station:LUMCON:wisl1:1,2019-12-01T21:30:00Z,29.1144,-90.1840,1.0,6.7,257.0,21.0,'11111222,11111222,11111222' 
LUMCON,ioos:station:LUMCON:wisl1:1,2019-12-01T21:45:00Z,29.1144,-90.1840,1.0,6.0,246.0,20.9,'11111222,11111222,11111222' 
LUMCON,ioos:station:LUMCON:wisl1:1,2019-12-01T22:00:00Z,29.1144,-90.1840,1.0,5.4,247.0,20.8,'11111222,11111222,11111222' 
LUMCON,ioos:station:LUMCON:wisl1:1,2019-12-01T22:15:00Z,29.1144,-90.1840,1.0,6.0,245.0,20.7,'11111222,11111222,11111222' 
LUMCON,ioos:station:LUMCON:wisl1:1,2019-12-01T22:30:00Z,29.1144,-90.1840,1.0,8.3,246.0,20.4,'11111222,11111222,11111222' 
LUMCON,ioos:station:LUMCON:wisl1:1,2019-12-01T22:45:00Z,29.1144,-90.1840,1.0,6.5,260.0,20.2,'11111222,11111222,11111222' 
LUMCON,ioos:station:LUMCON:wisl1:1,2019-12-01T23:00:00Z,29.1144,-90.1840,1.0,5.8,258.0,20.0,'11111222,11111222,11111222' 
LUMCON,ioos:station:LUMCON:wisl1:1,2019-12-01T23:15:00Z,29.1144,-90.1840,1.0,7.6,265.0,19.9,'11111222,11111222,11111222' 
LUMCON,ioos:station:LUMCON:wisl1:1,2019-12-01T23:30:00Z,29.1144,-90.1840,1.0,5.6,262.0,19.8,'11111222,11111222,11111222' 
LUMCON,ioos:station:LUMCON:wisl1:1,2019-12-01T23:45:00Z,29.1144,-90.1840,1.0,4.8,259.0,19.7,'11111222,11111222,11111222' 
LUMCON,ioos:station:LUMCON:wisl1:1,2019-12-02T00:00:00Z,29.1144,-90.1840,1.0,6.8,241.0,19.3,'11111222,11111222,11111222' 
LUMCON,ioos:station:LUMCON:wisl1:1,2019-12-02T00:15:00Z,29.1144,-90.1840,1.0,5.9,244.0,19.0,'11111222,11111222,11111222' 
LUMCON,ioos:station:LUMCON:wisl1:1,2019-12-02T00:30:00Z,29.1144,-90.1840,1.0,8.0,248.0,19.1,'11111222,11111222,11111222' 
LUMCON,ioos:station:LUMCON:wisl1:1,2019-12-02T00:45:00Z,29.1144,-90.1840,1.0,9.2,250.0,19.0,'11111222,11111222,11111222' 
LUMCON,ioos:station:LUMCON:wisl1:1,2019-12-02T01:00:00Z,29.1144,-90.1840,1.0,8.0,254.0,19.0,'11111222,11111222,11111222' 
LUMCON,ioos:station:LUMCON:wisl1:1,2019-12-02T01:15:00Z,29.1144,-90.1840,1.0,5.6,259.0,19.0,'11111222,11111222,11111222' 
LUMCON,ioos:station:LUMCON:wisl1:1,2019-12-02T01:30:00Z,29.1144,-90.1840,1.0,8.5,264.0,18.8,'11111222,11111222,11111222' 
LUMCON,ioos:station:LUMCON:wisl1:1,2019-12-02T01:45:00Z,29.1144,-90.1840,1.0,11.1,253.0,18.7,'11111222,11111222,11111222' 
LUMCON,ioos:station:LUMCON:wisl1:1,2019-12-02T02:00:00Z,29.1144,-90.1840,1.0,9.7,260.0,18.5,'11111222,11111222,11111222' 
LUMCON,ioos:station:LUMCON:wisl1:1,2019-12-02T02:15:00Z,29.1144,-90.1840,1.0,9.9,262.0,18.2,'11111222,11111222,11111222' 
LUMCON,ioos:station:LUMCON:wisl1:1,2019-12-02T02:30:00Z,29.1144,-90.1840,1.0,10.0,262.0,18.0,'11111222,11111222,11111222' 
LUMCON,ioos:station:LUMCON:wisl1:1,2019-12-02T02:45:00Z,29.1144,-90.1840,1.0,10.2,269.0,17.9,'11111222,11111222,11111222' 
LUMCON,ioos:station:LUMCON:wisl1:1,2019-12-02T03:00:00Z,29.1144,-90.1840,1.0,9.5,251.0,17.8,'11111222,11111222,11111222' 
LUMCON,ioos:station:LUMCON:wisl1:1,2019-12-02T03:15:00Z,29.1144,-90.1840,1.0,11.0,271.0,17.6,'11111222,11111222,11111222' 
LUMCON,ioos:station:LUMCON:wisl1:1,2019-12-02T03:30:00Z,29.1144,-90.1840,1.0,12.4,281.0,17.4,'11111222,11111222,11111222' 
LUMCON,ioos:station:LUMCON:wisl1:1,2019-12-02T03:45:00Z,29.1144,-90.1840,1.0,8.4,278.0,17.0,'11111222,11111222,11111222' 
LUMCON,ioos:station:LUMCON:wisl1:1,2019-12-02T04:00:00Z,29.1144,-90.1840,1.0,11.6,283.0,16.7,'11111222,11111222,11111222' 
LUMCON,ioos:station:LUMCON:wisl1:1,2019-12-02T04:15:00Z,29.1144,-90.1840,1.0,11.4,272.0,16.5,'11111222,11111222,11111222' 
LUMCON,ioos:station:LUMCON:wisl1:1,2019-12-02T04:30:00Z,29.1144,-90.1840,1.0,9.6,280.0,16.2,'11111222,11111222,11111222' 
LUMCON,ioos:station:LUMCON:wisl1:1,2019-12-02T04:45:00Z,29.1144,-90.1840,1.0,8.0,289.0,16.0,'11111222,11111222,11111222' 
LUMCON,ioos:station:LUMCON:wisl1:1,2019-12-02T05:00:00Z,29.1144,-90.1840,1.0,9.5,277.0,15.8,'11111222,11111222,11111222' 
LUMCON,ioos:station:LUMCON:wisl1:1,2019-12-02T05:15:00Z,29.1144,-90.1840,1.0,10.0,283.0,15.6,'11111222,11111222,11111222' 
LUMCON,ioos:station:LUMCON:wisl1:1,2019-12-02T05:30:00Z,29.1144,-90.1840,1.0,9.0,277.0,15.3,'11111222,11111222,11111222' 
LUMCON,ioos:station:LUMCON:wisl1:1,2019-12-02T05:45:00Z,29.1144,-90.1840,1.0,7.0,287.0,15.2,'11111222,11111222,11111222' 
LUMCON,ioos:station:LUMCON:wisl1:1,2019-12-02T06:00:00Z,29.1144,-90.1840,1.0,9.4,286.0,15.0,'11111222,11111222,11111222' 
LUMCON,ioos:station:LUMCON:wisl1:1,2019-12-02T06:15:00Z,29.1144,-90.1840,1.0,10.8,295.0,14.8,'11111222,11111222,11111222' 
LUMCON,ioos:station:LUMCON:wisl1:1,2019-12-02T06:30:00Z,29.1144,-90.1840,1.0,10.1,299.0,14.5,'11111222,11111222,11111222' 
LUMCON,ioos:station:LUMCON:wisl1:1,2019-12-02T06:45:00Z,29.1144,-90.1840,1.0,10.2,297.0,14.4,'11111222,11111222,11111222' 
LUMCON,ioos:station:LUMCON:wisl1:1,2019-12-02T07:00:00Z,29.1144,-90.1840,1.0,8.7,288.0,14.1,'11111222,11111222,11111222' 
LUMCON,ioos:station:LUMCON:wisl1:1,2019-12-02T07:15:00Z,29.1144,-90.1840,1.0,9.7,299.0,13.7,'11111222,11111222,11111222' 
LUMCON,ioos:station:LUMCON:wisl1:1,2019-12-02T07:30:00Z,29.1144,-90.1840,1.0,12.0,290.0,13.4,'11111222,11111222,11111222' 
LUMCON,ioos:station:LUMCON:wisl1:1,2019-12-02T07:45:00Z,29.1144,-90.1840,1.0,7.8,287.0,13.2,'11111222,11111222,11111222' 
LUMCON,ioos:station:LUMCON:wisl1:1,2019-12-02T08:00:00Z,29.1144,-90.1840,1.0,8.8,296.0,12.8,'11111222,11111222,11111222' 
LUMCON,ioos:station:LUMCON:wisl1:1,2019-12-02T08:15:00Z,29.1144,-90.1840,1.0,7.5,293.0,12.5,'11111222,11111222,11111222' 
LUMCON,ioos:station:LUMCON:wisl1:1,2019-12-02T08:30:00Z,29.1144,-90.1840,1.0,8.5,297.0,12.3,'11111222,11111222,11111222' 
LUMCON,ioos:station:LUMCON:wisl1:1,2019-12-02T08:45:00Z,29.1144,-90.1840,1.0,9.9,295.0,12.1,'11111222,11111222,11111222' 
LUMCON,ioos:station:LUMCON:wisl1:1,2019-12-02T09:00:00Z,29.1144,-90.1840,1.0,7.2,301.0,11.9,'11111222,11111222,11111222' 
LUMCON,ioos:station:LUMCON:wisl1:1,2019-12-02T09:15:00Z,29.1144,-90.1840,1.0,7.7,293.0,11.7,'11111222,11111222,11111222' 
LUMCON,ioos:station:LUMCON:wisl1:1,2019-12-02T09:30:00Z,29.1144,-90.1840,1.0,8.6,292.0,11.5,'11111222,11111222,11111222' 
LUMCON,ioos:station:LUMCON:wisl1:1,2019-12-02T09:45:00Z,29.1144,-90.1840,1.0,9.5,293.0,11.3,'11111222,11111222,11111222' 
LUMCON,ioos:station:LUMCON:wisl1:1,2019-12-02T10:00:00Z,29.1144,-90.1840,1.0,7.2,295.0,11.1,'11111222,11111222,11111222' 
LUMCON,ioos:station:LUMCON:wisl1:1,2019-12-02T10:15:00Z,29.1144,-90.1840,1.0,7.5,292.0,10.9,'11111222,11111222,11111222' 
LUMCON,ioos:station:LUMCON:wisl1:1,2019-12-02T10:30:00Z,29.1144,-90.1840,1.0,7.8,290.0,10.7,'11111222,11111222,11111222' 
LUMCON,ioos:station:LUMCON:wisl1:1,2019-12-02T10:45:00Z,29.1144,-90.1840,1.0,8.3,291.0,10.5,'11111222,11111222,11111222' 
LUMCON,ioos:station:LUMCON:wisl1:1,2019-12-02T11:00:00Z,29.1144,-90.1840,1.0,6.1,301.0,10.4,'11111222,11111222,11111222' 
LUMCON,ioos:station:LUMCON:wisl1:1,2019-12-02T11:15:00Z,29.1144,-90.1840,1.0,7.8,297.0,10.2,'11111222,11111222,11111222' 
LUMCON,ioos:station:LUMCON:wisl1:1,2019-12-02T11:30:00Z,29.1144,-90.1840,1.0,7.2,291.0,10.2,'11111222,11111222,11111222' 
LUMCON,ioos:station:LUMCON:wisl1:1,2019-12-02T11:45:00Z,29.1144,-90.1840,1.0,11.5,293.0,10.1,'11111222,11111222,11111222' 
LUMCON,ioos:station:LUMCON:wisl1:1,2019-12-02T12:00:00Z,29.1144,-90.1840,1.0,8.0,281.0,9.8,'11111222,11111222,11111222' 
LUMCON,ioos:station:LUMCON:wisl1:1,2019-12-02T12:15:00Z,29.1144,-90.1840,1.0,9.6,294.0,9.8,'11111222,11111222,11111222' 
LUMCON,ioos:station:LUMCON:wisl1:1,2019-12-02T12:30:00Z,29.1144,-90.1840,1.0,6.8,294.0,9.6,'11111222,11111222,11111222' 
LUMCON,ioos:station:LUMCON:wisl1:1,2019-12-02T12:45:00Z,29.1144,-90.1840,1.0,8.8,293.0,9.5,'11111222,11111222,11111222' 
LUMCON,ioos:station:LUMCON:wisl1:1,2019-12-02T13:00:00Z,29.1144,-90.1840,1.0,8.9,295.0,9.5,'11111222,11111222,11111222' 
LUMCON,ioos:station:LUMCON:wisl1:1,2019-12-02T13:15:00Z,29.1144,-90.1840,1.0,11.3,285.0,9.5,'11111222,11111222,11111222' 
LUMCON,ioos:station:LUMCON:wisl1:1,2019-12-02T13:30:00Z,29.1144,-90.1840,1.0,8.8,296.0,9.7,'11111222,11111222,11111222' 
LUMCON,ioos:station:LUMCON:wisl1:1,2019-12-02T13:45:00Z,29.1144,-90.1840,1.0,9.7,303.0,9.6,'11111222,11111222,11111222' 
LUMCON,ioos:station:LUMCON:wisl1:1,2019-12-02T14:00:00Z,29.1144,-90.1840,1.0,10.9,304.0,9.8,'11111222,11111222,11111222' 
LUMCON,ioos:station:LUMCON:wisl1:1,2019-12-02T14:15:00Z,29.1144,-90.1840,1.0,7.6,317.0,9.9,'11111222,11111222,11111222' 
LUMCON,ioos:station:LUMCON:wisl1:1,2019-12-02T14:30:00Z,29.1144,-90.1840,1.0,9.6,305.0,9.8,'11111222,11111222,11111222' 
LUMCON,ioos:station:LUMCON:wisl1:1,2019-12-02T14:45:00Z,29.1144,-90.1840,1.0,6.7,304.0,9.9,'11111222,11111222,11111222' 
LUMCON,ioos:station:LUMCON:wisl1:1,2019-12-02T15:00:00Z,29.1144,-90.1840,1.0,8.3,301.0,9.9,'11111222,11111222,11111222' 
LUMCON,ioos:station:LUMCON:wisl1:1,2019-12-02T15:15:00Z,29.1144,-90.1840,1.0,8.1,306.0,9.9,'11111222,11111222,11111222' 
LUMCON,ioos:station:LUMCON:wisl1:1,2019-12-02T15:30:00Z,29.1144,-90.1840,1.0,6.8,304.0,10.1,'11111222,11111222,11111222' 
LUMCON,ioos:station:LUMCON:wisl1:1,2019-12-02T15:45:00Z,29.1144,-90.1840,1.0,8.1,305.0,10.2,'11111222,11111222,11111222' 
LUMCON,ioos:station:LUMCON:wisl1:1,2019-12-02T16:00:00Z,29.1144,-90.1840,1.0,4.9,311.0,10.6,'11111222,11111222,11111222' 
LUMCON,ioos:station:LUMCON:wisl1:1,2019-12-02T16:15:00Z,29.1144,-90.1840,1.0,6.4,326.0,10.6,'11111222,11111222,11111222' 
LUMCON,ioos:station:LUMCON:wisl1:1,2019-12-02T16:30:00Z,29.1144,-90.1840,1.0,5.8,295.0,10.8,'11111222,11111222,11111222' 
LUMCON,ioos:station:LUMCON:wisl1:1,2019-12-02T16:45:00Z,29.1144,-90.1840,1.0,3.6,296.0,10.9,'11111222,11111222,11111222' 
LUMCON,ioos:station:LUMCON:wisl1:1,2019-12-02T17:00:00Z,29.1144,-90.1840,1.0,4.2,292.0,11.1,'11111222,11111222,11111222' 
LUMCON,ioos:station:LUMCON:wisl1:1,2019-12-02T17:15:00Z,29.1144,-90.1840,1.0,8.7,317.0,11.1,'11111222,11111222,11111222' 
LUMCON,ioos:station:LUMCON:wisl1:1,2019-12-02T17:30:00Z,29.1144,-90.1840,1.0,5.4,294.0,11.6,'11111222,11111222,11111222' 
LUMCON,ioos:station:LUMCON:wisl1:1,2019-12-02T17:45:00Z,29.1144,-90.1840,1.0,5.1,304.0,11.6,'11111222,11111222,11111222' 
LUMCON,ioos:station:LUMCON:wisl1:1,2019-12-02T18:00:00Z,29.1144,-90.1840,1.0,5.0,281.0,11.8,'11111222,11111222,11111222' 
LUMCON,ioos:station:LUMCON:wisl1:1,2019-12-02T18:15:00Z,29.1144,-90.1840,1.0,4.7,316.0,11.7,'11111222,11111222,11111222' 
LUMCON,ioos:station:LUMCON:wisl1:1,2019-12-02T18:30:00Z,29.1144,-90.1840,1.0,4.0,295.0,12.3,'11111222,11111222,11111222' 
LUMCON,ioos:station:LUMCON:wisl1:1,2019-12-02T18:45:00Z,29.1144,-90.1840,1.0,5.1,298.0,12.2,'11111222,11111222,11111222' 
LUMCON,ioos:station:LUMCON:wisl1:1,2019-12-02T19:00:00Z,29.1144,-90.1840,1.0,5.9,283.0,12.5,'11111222,11111222,11111222' 
LUMCON,ioos:station:LUMCON:wisl1:1,2019-12-02T19:15:00Z,29.1144,-90.1840,1.0,5.3,278.0,12.5,'11111222,11111222,11111222' 
LUMCON,ioos:station:LUMCON:wisl1:1,2019-12-02T19:30:00Z,29.1144,-90.1840,1.0,5.1,306.0,12.4,'11111222,11111222,11111222' 
LUMCON,ioos:station:LUMCON:wisl1:1,2019-12-02T19:45:00Z,29.1144,-90.1840,1.0,4.8,283.0,12.8,'11111222,11111222,11111222' 
LUMCON,ioos:station:LUMCON:wisl1:1,2019-12-02T20:00:00Z,29.1144,-90.1840,1.0,4.8,322.0,12.8,'11111222,11111222,11111222' 
LUMCON,ioos:station:LUMCON:wisl1:1,2019-12-02T20:15:00Z,29.1144,-90.1840,1.0,5.5,307.0,13.1,'11111222,11111222,11111222' 
LUMCON,ioos:station:LUMCON:wisl1:1,2019-12-02T20:30:00Z,29.1144,-90.1840,1.0,4.6,290.0,13.1,'11111222,11111222,11111222' 
LUMCON,ioos:station:LUMCON:wisl1:1,2019-12-02T20:45:00Z,29.1144,-90.1840,1.0,4.7,292.0,13.3,'11111222,11111222,11111222' 
LUMCON,ioos:station:LUMCON:wisl1:1,2019-12-02T21:00:00Z,29.1144,-90.1840,1.0,4.6,290.0,13.3,'11111222,11111222,11111222' 
LUMCON,ioos:station:LUMCON:wisl1:1,2019-12-02T21:15:00Z,29.1144,-90.1840,1.0,4.6,307.0,13.4,'11111222,11111222,11111222' 
LUMCON,ioos:station:LUMCON:wisl1:1,2019-12-02T21:30:00Z,29.1144,-90.1840,1.0,3.4,290.0,13.5,'11111222,11111222,11111222' 
LUMCON,ioos:station:LUMCON:wisl1:1,2019-12-02T21:45:00Z,29.1144,-90.1840,1.0,3.4,291.0,13.4,'11111222,11111222,11111222' 
LUMCON,ioos:station:LUMCON:wisl1:1,2019-12-02T22:00:00Z,29.1144,-90.1840,1.0,2.6,304.0,13.4,'11111222,11111222,11111222' 
LUMCON,ioos:station:LUMCON:wisl1:1,2019-12-02T22:15:00Z,29.1144,-90.1840,1.0,2.8,299.0,13.2,'11111222,11111222,11111222' 
LUMCON,ioos:station:LUMCON:wisl1:1,2019-12-02T22:30:00Z,29.1144,-90.1840,1.0,5.1,325.0,13.0,'11111222,11111222,11111222' 
LUMCON,ioos:station:LUMCON:wisl1:1,2019-12-02T22:45:00Z,29.1144,-90.1840,1.0,4.2,315.0,13.0,'11111222,11111222,11111222' 
LUMCON,ioos:station:LUMCON:wisl1:1,2019-12-02T23:00:00Z,29.1144,-90.1840,1.0,3.9,330.0,12.8,'11111222,11111222,11111222' 
LUMCON,ioos:station:LUMCON:wisl1:1,2019-12-02T23:15:00Z,29.1144,-90.1840,1.0,3.8,335.0,12.2,'11111222,11111222,11111222' 
LUMCON,ioos:station:LUMCON:wisl1:1,2019-12-02T23:30:00Z,29.1144,-90.1840,1.0,4.7,337.0,11.9,'11111222,11111222,11111222' 
LUMCON,ioos:station:LUMCON:wisl1:1,2019-12-02T23:45:00Z,29.1144,-90.1840,1.0,4.1,340.0,11.8,'11111222,11111222,11111222' 
LUMCON,ioos:station:LUMCON:wisl1:1,2019-12-03T00:00:00Z,29.1144,-90.1840,1.0,3.7,344.0,11.8,'11111222,11111222,11111222' 
LUMCON,ioos:station:LUMCON:wisl1:1,2019-12-03T00:15:00Z,29.1144,-90.1840,1.0,4.3,343.0,11.7,'11111222,11111222,11111222' 
LUMCON,ioos:station:LUMCON:wisl1:1,2019-12-03T00:30:00Z,29.1144,-90.1840,1.0,3.3,352.0,11.7,'11111222,11111222,11111222' 